Weather History for Clayton Lake, ME

Change the Weather History Date:

Tuesday, May 6, 2014

  Actual Average Record
Temperature  
Mean Temperature 45 °F -  
Max Temperature 57 °F 56 °F 79 °F (2013)
Min Temperature 35 °F 32 °F 24 °F (2001)
Degree Days  
Heating Degree Days 20    
Moisture  
Dew Point 33 °F    
Average Humidity 63    
Maximum Humidity 97    
Minimum Humidity 36    
Precipitation  
Precipitation 0.02 in - - ()
Sea Level Pressure  
Sea Level Pressure 29.84 in    
Wind  
Wind Speed 2 mph (NW)    
Max Wind Speed 9 mph    
Max Gust Speed 18 mph    
Averages and records for this station are not official NWS values.
T = Trace of Precipitation, MM = Missing Value Source: NWS Daily Summary

Daily Weather History Graph

Daily Weather History Graph

Search for Another Location

Airport:

Trip Planner

Search our weather history database for the weather conditions in past years. The results will help you decide how hot, cold, wet, or windy it might be!

Date:

Astronomy

May. 06, 2014 Rise Set
Actual Time 5:16 AM EDT 7:54 PM EDT
Civil Twilight 4:41 AM EDT 8:28 PM EDT
Nautical Twilight 3:58 AM EDT 9:12 PM EDT
Astronomical Twilight 3:08 AM EDT 10:02 PM EDT
Moon 11:33 AM EDT (5/6) 1:08 AM EDT (5/6)
Length of Visible Light 15h 46m
Length of Day
14h 38m
Waxing Crescent, 46% of the Moon is Illuminated
May 6
Waxing Crescent
May 6
First Quarter
May 14
Full
May 21
Last Quarter
May 28
New

Hourly Weather History & Observations

Time (EDT) Temp. Windchill Dew Point Humidity Pressure Visibility Wind Dir Wind Speed Gust Speed Precip Events Conditions
12:16 AM 41.9 °F - 35.8 °F 79% 29.76 in - Calm Calm - N/A   Unknown
1:16 AM 38.1 °F - 34.9 °F 88% 29.76 in - Calm Calm - N/A   Unknown
2:16 AM 35.6 °F - 34.2 °F 94% 29.76 in - Calm Calm - N/A   Unknown
3:16 AM 36.5 °F - 35.6 °F 97% 29.76 in - Calm Calm - N/A   Unknown
8:16 AM 42.4 °F - 36.1 °F 78% 29.83 in - Calm Calm - N/A   Unknown
9:16 AM 45.7 °F - 37.2 °F 72% 29.83 in - Calm Calm - N/A   Unknown
10:16 AM 48.0 °F - 37.0 °F 66% 29.83 in - Calm Calm - N/A   Unknown
11:16 AM 51.8 °F - 36.3 °F 56% 29.82 in - Variable 3.5 mph - N/A   Unknown
12:16 PM 52.7 °F - 33.8 °F 49% 29.82 in - West 6.9 mph 15.0 mph N/A   Unknown
1:16 PM 49.8 °F - 35.4 °F 58% 29.82 in - NNW 8.1 mph 16.1 mph N/A   Unknown
2:16 PM 52.5 °F - 34.2 °F 50% 29.82 in - Variable 5.8 mph 13.8 mph N/A   Unknown
3:16 PM 55.2 °F - 31.5 °F 40% 29.81 in - WNW 9.2 mph 18.4 mph 0.01 in   Unknown
4:16 PM 53.8 °F - 28.6 °F 38% 29.83 in - NNW 6.9 mph 16.1 mph N/A   Unknown
5:16 PM 55.0 °F - 29.1 °F 37% 29.84 in - Variable 6.9 mph 17.3 mph N/A   Unknown
6:16 PM 54.0 °F - 27.1 °F 36% 29.85 in - Variable 3.5 mph 16.1 mph N/A   Unknown
7:16 PM 50.7 °F - 28.4 °F 42% 29.88 in - Variable 4.6 mph 16.1 mph N/A   Unknown
8:16 PM 45.5 °F 44.2 °F 30.9 °F 57% 29.90 in - Variable 3.5 mph - 0.00 in   Unknown
9:16 PM 40.6 °F - 32.5 °F 73% 29.94 in - Calm Calm - N/A   Unknown
10:16 PM 41.5 °F - 32.7 °F 71% 29.95 in - Variable 2.3 mph - 0.01 in   Unknown
11:16 PM 40.5 °F 38.4 °F 32.2 °F 72% 29.96 in - Variable 3.5 mph - 0.00 in   Unknown